Weather in Lezhë

Albania     41°46′49″N   19°38′37″E
temp.,
°C
wind,
m/s
gust,
m/s
humid.,
%
clouds,
%
prec.,
mm/h
press.,
hPa
HPBL,
m
24 july, sat
sat2423:00+20ene22550 0.0 101427
02:00+19ene22530 0.0 101436
05:00+18ene22580 0.0 101333
08:00+24ene22445 0.0 1014258
11:00+31nnw01270 0.0 10131367
14:00+31w33291 0.0 10121854
17:00+29wsw23370 0.0 1012660
20:00+23s11630 0.0 101319
25 july, sun
sun2523:00+21e22585 0.0 101426
02:00+20ene22540 0.0 101424
05:00+19e22550 0.0 101424
08:00+25e12410 0.0 1015218
11:00+33wsw11280 0.0 1014971
14:00+34wsw32250 0.0 10131559
17:00+31wsw22324 0.0 1013504
20:00+25e11474 0.0 101412
26 july, mon
mon2623:00+23e224930 0.0 101416
02:00+22ene215033 0.0 101416
05:00+21ene225143 0.0 101519
08:00+26ese1142100 0.0 1016147
11:00+34wsw21245 0.0 1016746
14:00+34wsw33266 0.0 1016976
17:00+32wsw22305 0.0 1016481
20:00+26e11455 0.0 101511
27 july, tue
tue2723:00+24ene224718 0.0 101611
02:00+23ene2246100 0.0 101716
05:00+22ene224797 0.0 101717
08:00+29e123631 0.0 1016149
11:00+35w22240 0.0 1016764
14:00+37wsw33210 0.0 1016986
17:00+34wsw22270 0.0 1016492
20:00+27e11440 0.0 101511
28 july, wed
wed2823:00+25ene22422 0.0 101611
02:00+24ene223819 0.0 101614
05:00+23e22351 0.0 101516
08:00+30ene12271 0.0 1015132
11:00+38w11160 0.0 1014736
14:00+38wsw34170 0.0 10141283
17:00+36wsw22200 0.0 1014460
20:00+28ese21310 0.0 101411